This demonstration page uses our WeatherBlox Daily Observations layout. Learn more.

Left ArrowRight Arrow

31.84235, -102.49876

Hourly Observations for May 2, 2017

Temp ( °F °C ) Dew Point ( °F °C ) Humidity (%) Winds ( mph kmh ) Pressure ( in mb ) Visibility ( mi km ) Precip ( " mm )
12:53 am 00:53 Clear 63 17.2 30 -1.1 29 29 E 10 17 29.83 1010 10 16 0.00 0.00
1:53 am 01:53 Clear 65 18.3 30 -1.1 27 27 ESE 15 24 29.83 1010 10 16 0.00 0.00
2:53 am 02:53 Clear 62 16.7 36 2.2 38 38 E 12 19 29.83 1010 10 16 0.00 0.00
3:53 am 03:53 Clear 54 12.2 36 2.2 51 51 E 8 13 29.83 1010 10 16 0.00 0.00
4:53 am 04:53 Clear 56 13.3 38 3.3 51 51 E 8 13 29.83 1010 10 16 0.00 0.00
5:53 am 05:53 Clear 56 13.3 40 4.4 55 55 SE 7 11 29.83 1010 10 16 0.00 0.00
6:53 am 06:53 Clear 54 12.2 40 4.4 59 59 SSE 7 11 29.83 1010 10 16 0.00 0.00
7:53 am 07:53 Sunny 60 15.6 42 5.6 52 52 S 9 15 29.83 1010 10 16 0.00 0.00
8:53 am 08:53 Sunny 67 19.4 43 6.1 42 42 S 16 26 29.85 1011 10 16 0.00 0.00
9:53 am 09:53 Sunny 70 21.1 42 5.6 37 37 S 16 26 29.85 1011 10 16 0.00 0.00
10:53 am 10:53 Sunny 76 24.4 42 5.6 30 30 S 14 22 29.84 1011 10 16 0.00 0.00
11:53 am 11:53 Sunny 81 27.2 38 3.3 21 21 SSW 18 30 29.83 1010 10 16 0.00 0.00
12:53 pm 12:53 Sunny 88 31.1 34 1.1 15 15 S 16 26 29.79 1009 10 16 0.00 0.00
1:53 pm 13:53 Sunny 90 32.2 31 -0.6 12 12 S 16 26 29.76 1008 10 16 0.00 0.00
2:53 pm 14:53 Sunny 91 32.8 22 -5.6 8 8 S 14 22 29.73 1007 10 16 0.00 0.00
3:53 pm 15:53 Sunny 93 33.9 26 -3.3 9 9 S 18 30 29.72 1007 10 16 0.00 0.00
4:53 pm 16:53 Sunny 93 33.9 27 -2.8 9 9 S 15 24 29.69 1005 10 16 0.00 0.00
5:53 pm 17:53 Sunny 92 33.3 27 -2.8 10 10 S 15 24 29.66 1004 10 16 0.00 0.00
6:53 pm 18:53 Sunny 90 32.2 31 -0.6 12 12 SSE 18 30 29.66 1004 10 16 0.00 0.00
7:53 pm 19:53 Sunny 86 30 33 0.6 15 15 S 16 26 29.66 1004 10 16 0.00 0.00
8:53 pm 20:53 Clear 83 28.3 40 4.4 22 22 SSE 13 20 29.67 1005 10 16 0.00 0.00
9:53 pm 21:53 Clear 80 26.7 44 6.7 28 28 S 15 24 29.69 1005 10 16 0.00 0.00
10:53 pm 22:53 Clear 78 25.6 45 7.2 31 31 S 14 22 29.70 1006 10 16 0.00 0.00
11:53 pm 23:53 Clear 75 23.9 40 4.4 28 28 S 12 19 29.70 1006 10 16 0.00 0.00

Powered by AerisWeather